Regional Weather Roundup
Issued by NWS Cleveland, OH

Home | Current Version | Previous Version | Text Only | Print | Product List | Glossary Off
Versions: 1 2 3 4 5 6 7 8 9 10 11 12 13 14 15 16 17 18 19 20 21 22 23 24 25 26 27 28 29 30 31 32 33 34 35 36 37 38 39 40 41 42 43 44 45 46 47 48 49 50

515
ASUS41 KCLE 220502
RWRCLE
OHIO REGIONAL WEATHER ROUNDUP
NATIONAL WEATHER SERVICE CLEVELAND, OH
100 AM EDT SUN APR 22 2018

NOTE: "FAIR" INDICATES FEW OR NO CLOUDS BELOW 12,000 FEET WITH NO
SIGNIFICANT WEATHER AND/OR OBSTRUCTIONS TO VISIBILITY.

OHZ001>008-015>018-024>027-034-035-043-044-220600-
   NORTHWEST OHIO

CITY           SKY/WX    TMP DP  RH WIND       PRES   REMARKS
DEFIANCE       FAIR      45  23  42 SE3       30.39S
FINDLAY        FAIR      45  19  35 E6        30.37S
TOLEDO EXPRESS MOCLDY    44  18  35 E5        30.39F
TOLEDO EXEC    FAIR      41  27  57 E5        30.40F
LIMA           MOCLDY    44  23  43 CALM      30.37R
$$

OHZ009>014-019>023-028>033-038-089-220600-
   NORTHEAST OHIO

CITY           SKY/WX    TMP DP  RH WIND       PRES   REMARKS
CLE-HOPKINS    MOCLDY    39  33  79 NE5       30.42S
CLE-LAKEFRONT  FAIR      40  36  86 CALM      30.39F
CUY CO. ARPT   NOT AVBL
LORAIN-ELYRIA  FAIR      36  26  67 NE8       30.39F
ASHTABULA      FAIR      34  29  82 CALM      30.41R
AKRON-CANTON   CLOUDY    44  25  47 NE6       30.38S
WOOSTER        MOCLDY    42  29  59 NE8       30.37F
MANSFIELD      MOCLDY    43  25  49 NE3       30.37F
YOUNGSTOWN     FAIR      41  25  53 NE6       30.38R
$$

OHZ042-051>053-060>062-070>072-077>081-220600-
  SOUTHWEST OHIO

CITY           SKY/WX    TMP DP  RH WIND       PRES   REMARKS
CINC-COVINGTON CLOUDY    51  24  34 E10       30.30S
CINC-LUNKEN    FAIR      50  31  48 CALM      30.32S
HAMILTON       FAIR      50  26  39 NE3       30.34R
DAYTON         CLOUDY    45  26  47 NE7       30.34F
WRIGHT-PAT AFB CLOUDY    47  23  39 NE8       30.33F
DAYTON GENERAL FAIR      48  24  39 NE10      30.32S
WILMINGTON     FAIR      46  30  53 NE9       30.32F
$$

OHZ036-037-039>041-045>050-054>059-063>069-073>076-082>088-220600-
  CENTRAL AND SOUTHEAST OHIO

CITY           SKY/WX    TMP DP  RH WIND       PRES   REMARKS
COLUMBUS       CLOUDY    50  20  30 CALM      30.34S
OSU AIRPORT    FAIR      46  27  47 NE7       30.34F
BOLTON FIELD   FAIR      45  30  56 NE7       30.34F
RICKENBACK AFB NOT AVBL
NEWARK         FAIR      49  25  39 NE3       30.34F
MARION         FAIR      39  27  62 NE5       30.36F
LANCASTER      FAIR      45  33  63 CALM      30.35S
ZANESVILLE     MOCLDY    49  27  42 NE3       30.35S
NEW PHILLY     CLOUDY    49  32  52 N3        30.38R
$$




USA.gov is the U.S. government's official web portal to all federal, state and local government web resources and services.